Simultaneous Nadir Overpasses (SNOs) Predictions

Prediction of SNOs between LANDSAT-8 and METOP-B Satellite Orbit:

Table of predicted SNOs for the next 14.0 days since TLE Epoch: 6/13/2020
Index Date (LANDSAT-8) Time (LANDSAT-8) Lat,Lon (LANDSAT-8) SZA (LANDSAT-8 ) Date (METOP-B) Time (METOP-B) Lat,Lon (METOP-B) SZA (METOP-B ) Distance(km) Time Diff (sec)
1 06/14/2020 06:10:41 81.15, 127.74 60.07 06/14/2020 06:09:40 81.15, 127.77 60.05 0.42 61
2 06/14/2020 07:00:07 -81.17, -64.30 119.89 06/14/2020 07:00:20 -81.17, -64.41 119.89 1.84 13
3 06/17/2020 01:44:57 81.14,-165.89 59.95 06/17/2020 01:44:01 81.14,-166.05 59.90 2.78 56
4 06/17/2020 02:34:23 -81.17, 2.08 120.01 06/17/2020 02:34:40 -81.17, 2.18 119.99 1.72 17
5 06/19/2020 21:19:13 81.16, -99.18 59.92 06/19/2020 21:18:21 81.16, -99.12 59.91 1.10 52
6 06/19/2020 22:08:39 -81.18, 68.81 120.03 06/19/2020 22:09:01 -81.18, 68.75 120.03 1.23 22
7 06/22/2020 16:53:30 81.15, -32.88 59.90 06/22/2020 16:52:43 81.15, -32.96 59.87 1.46 47
8 06/22/2020 17:42:56 -81.18, 135.14 120.05 06/22/2020 17:43:22 -81.18, 135.31 120.02 3.08 26
9 06/25/2020 12:27:45 81.17, 33.77 59.98 06/25/2020 12:27:02 81.17, 33.95 59.98 3.08 43




NCC Satellite Simultaneous Nadir Overpasses (SNOs) Prediction Service
